GM7AFE Weather Reports


Display with metric or nautical units.
time (UTC)temp
F
wind
direction
speed
MPH
gust
MPH
rain 1hr
in
rain 24hr
in
rain mn
in
humidity
%
barometer
mb
20260508040538 47 173 15.0 21.0 0.00 0.00 0.00 91 1006.4
20260508035535 47 166 17.0 22.0 0.00 0.00 0.00 91 1006.3
20260508034532 47 169 16.0 23.0 0.00 0.00 0.00 92 1006.4
20260508033528 47 161 15.0 21.0 0.00 0.00 0.00 92 1006.4
20260508032525 47 175 15.0 21.0 0.00 0.00 0.00 92 1006.4
20260508031542 47 183 16.0 23.0 0.00 0.00 0.00 92 1006.5
20260508030519 47 156 16.0 21.0 0.00 0.00 0.00 92 1006.4
20260508025515 47 149 17.0 23.0 0.00 0.00 0.00 92 1006.6
20260508024613 47 151 17.0 23.0 0.00 0.00 0.00 91 1006.6
20260508023629 47 157 17.0 23.0 0.00 0.00 0.00 91 1006.6
20260508022606 47 156 17.0 24.0 0.00 0.00 0.00 91 1006.5
20260508021623 47 154 18.0 24.0 0.00 0.00 0.00 91 1006.7
20260508020600 47 158 20.0 29.0 0.00 0.00 0.00 91 1006.8
20260508015617 47 158 19.0 27.0 0.00 0.00 0.00 91 1006.7
20260508014554 47 146 20.0 27.0 0.00 0.00 0.00 91 1006.8
20260508013551 47 158 19.0 31.0 0.00 0.00 0.00 91 1006.9
20260508012548 47 161 21.0 30.0 0.00 0.00 0.00 90 1006.9
20260508011544 47 158 21.0 29.0 0.00 0.00 0.00 90 1006.9
20260508010622 47 154 20.0 27.0 0.00 0.00 0.00 90 1007.0
20260508005538 47 143 19.0 27.0 0.00 0.00 0.00 90 1007.0
20260508004535 47 176 22.0 31.0 0.00 0.00 0.00 90 1006.9
20260508003632 47 173 22.0 29.0 0.00 0.00 0.00 89 1007.1
20260508002529 47 154 20.0 31.0 0.00 0.00 0.00 89 1007.3
20260508001526 47 153 22.0 34.0 0.00 0.00 0.00 90 1007.1
20260508000522 47 135 19.0 22.0 0.00 0.00 0.00 89 1007.2
20260507235521 47 154 22.0 29.0 0.00 0.00 0.00 89 1007.3
20260507234516 47 172 19.0 27.0 0.00 0.00 0.00 89 1007.4
20260507233613 47 147 20.0 27.0 0.00 0.00 0.00 88 1007.5
20260507232612 47 154 19.0 27.0 0.00 0.00 0.00 88 1007.6
20260507231626 47 160 19.0 30.0 0.00 0.00 0.00 88 1007.7
20260507230603 47 157 19.0 27.0 0.00 0.00 0.00 88 1007.7
20260507225600 47 177 18.0 27.0 0.00 0.00 0.00 88 1007.8
20260507224557 47 176 21.0 27.0 0.00 0.00 0.00 87 1007.8
20260507223554 47 142 21.0 27.0 0.00 0.00 0.00 87 1007.9
20260507222611 47 160 21.0 29.0 0.00 0.00 0.00 87 1008.0
20260507221548 46 143 22.0 30.0 0.00 0.00 0.00 86 1008.1
20260507220545 46 146 22.0 29.0 0.00 0.00 0.00 86 1007.9
20260507215541 46 158 20.0 30.0 0.00 0.00 0.00 86 1008.1
20260507214538 46 161 22.0 29.0 0.00 0.00 0.00 86 1008.2
20260507213535 46 165 21.0 30.0 0.00 0.00 0.00 85 1008.2
20260507212532 46 162 22.0 30.0 0.00 0.00 0.00 85 1008.3
20260507211529 46 138 23.0 32.0 0.00 0.00 0.00 85 1008.3
20260507210526 46 147 19.0 27.0 0.00 0.00 0.00 85 1008.4
20260507205523 46 170 21.0 27.0 0.00 0.00 0.00 85 1008.6
20260507204519 46 150 19.0 25.0 0.00 0.00 0.00 85 1008.5
20260507203516 46 165 20.0 27.0 0.00 0.00 0.00 85 1008.5
20260507202613 46 159 20.0 29.0 0.00 0.00 0.00 85 1008.4
20260507201610 46 156 20.0 25.0 0.00 0.00 0.00 85 1008.6
20260507200607 46 143 20.0 27.0 0.00 0.00 0.00 84 1008.7
20260507195604 46 149 19.0 27.0 0.00 0.00 0.00 85 1008.6
20260507194600 46 165 19.0 25.0 0.00 0.00 0.00 85 1008.7
20260507193618 46 164 19.0 27.0 0.00 0.00 0.00 85 1008.6
20260507192635 46 158 19.0 24.0 0.00 0.00 0.00 84 1008.6
20260507191632 47 146 19.0 27.0 0.00 0.00 0.00 84 1008.7
20260507190548 47 147 20.0 27.0 0.00 0.00 0.00 84 1008.6
20260507185545 47 146 18.0 25.0 0.00 0.00 0.00 84 1008.5
20260507184542 47 153 21.0 25.0 0.00 0.00 0.00 84 1008.6
20260507183539 47 147 19.0 27.0 0.00 0.00 0.00 84 1008.7
20260507182535 47 147 20.0 30.0 0.00 0.00 0.00 84 1008.6
20260507181552 47 154 19.0 24.0 0.00 0.00 0.00 84 1008.6
20260507180549 47 161 19.0 25.0 0.00 0.00 0.00 83 1008.7
20260507175526 47 146 18.0 22.0 0.00 0.00 0.00 84 1008.8
20260507174522 47 157 20.0 29.0 0.00 0.00 0.00 83 1008.8
20260507173519 47 158 20.0 27.0 0.00 0.00 0.00 83 1008.8
20260507172516 47 135 21.0 30.0 0.00 0.00 0.00 83 1008.9
20260507171613 47 163 19.0 27.0 0.00 0.00 0.00 83 1009.1
20260507170610 47 154 19.0 27.0 0.00 0.00 0.00 83 1009.1
20260507165607 47 180 18.0 25.0 0.00 0.00 0.00 82 1009.2
20260507164604 47 146 20.0 27.0 0.00 0.00 0.00 82 1009.4
20260507163621 47 156 18.0 30.0 0.00 0.00 0.00 83 1009.3
20260507162557 46 143 19.0 27.0 0.00 0.00 0.00 83 1009.4
20260507161555 46 165 20.0 27.0 0.00 0.00 0.00 84 1009.6
20260507160551 46 147 19.0 29.0 0.00 0.00 0.00 84 1009.6
20260507155548 46 156 20.0 27.0 0.00 0.00 0.00 84 1009.7
20260507154545 46 154 21.0 27.0 0.00 0.00 0.00 83 1009.7
20260507153542 47 154 18.0 25.0 0.00 0.00 0.00 79 1009.8
20260507152539 47 150 18.0 27.0 0.00 0.00 0.00 77 1009.9
20260507151535 47 161 19.0 24.0 0.00 0.00 0.00 76 1010.0
20260507150532 47 169 20.0 27.0 0.00 0.00 0.00 75 1010.1
20260507145529 47 157 20.0 27.0 0.00 0.00 0.00 75 1010.1
20260507144526 47 143 20.0 27.0 0.00 0.00 0.00 76 1010.1
20260507143543 47 146 21.0 30.0 0.00 0.00 0.00 74 1010.1
20260507142519 47 135 18.0 27.0 0.00 0.00 0.00 77 1010.1
20260507141516 47 135 20.0 29.0 0.00 0.00 0.00 76 1010.3
20260507140613 47 138 20.0 27.0 0.00 0.00 0.00 76 1010.3
20260507135611 47 154 20.0 29.0 0.00 0.00 0.00 75 1010.3
20260507134607 46 146 21.0 27.0 0.00 0.00 0.00 74 1010.4
20260507133604 47 150 20.0 29.0 0.00 0.00 0.00 79 1010.5
20260507132621 47 146 19.0 24.0 0.00 0.00 0.00 82 1010.5
20260507131558 46 153 20.0 27.0 0.00 0.00 0.00 82 1010.5
20260507130615 47 157 20.0 30.0 0.00 0.00 0.00 76 1010.5
20260507125552 47 139 22.0 29.0 0.00 0.00 0.00 73 1010.7
20260507124548 47 123 20.0 27.0 0.00 0.00 0.00 73 1010.8
20260507123546 47 147 20.0 27.0 0.00 0.00 0.00 71 1010.8
20260507122602 47 131 18.0 27.0 0.00 0.00 0.00 74 1010.8
20260507121539 48 134 17.0 25.0 0.00 0.00 0.00 75 1011.0
20260507120536 47 150 19.0 27.0 0.00 0.00 0.00 74 1010.8
20260507115532 48 145 19.0 25.0 0.00 0.00 0.00 73 1010.9
20260507114529 48 153 20.0 27.0 0.00 0.00 0.00 73 1011.0
20260507113526 47 157 20.0 29.0 0.00 0.00 0.00 74 1010.9
20260507112523 46 143 18.0 23.0 0.00 0.00 0.00 77 1011.1
20260507111540 47 149 17.0 23.0 0.00 0.00 0.00 75 1011.1
20260507110517 47 135 20.0 24.0 0.00 0.00 0.00 72 1011.2
20260507105614 47 150 19.0 27.0 0.00 0.00 0.00 74 1011.0
20260507104611 47 151 19.0 27.0 0.00 0.00 0.00 76 1011.0
20260507103608 46 157 18.0 29.0 0.00 0.00 0.00 77 1011.1
20260507102625 46 146 18.0 25.0 0.00 0.00 0.00 79 1011.0
20260507101601 46 156 16.0 23.0 0.00 0.00 0.00 80 1011.2
20260507100558 46 134 17.0 24.0 0.00 0.00 0.00 81 1011.3
20260507095555 45 139 17.0 22.0 0.00 0.00 0.00 81 1011.4
20260507094552 46 143 17.0 24.0 0.00 0.00 0.00 77 1011.2
20260507093549 46 147 17.0 24.0 0.00 0.00 0.00 76 1011.4
20260507092545 46 146 18.0 25.0 0.00 0.00 0.00 76 1011.4
20260507091542 47 161 18.0 25.0 0.00 0.00 0.00 75 1011.4
20260507090539 47 142 16.0 24.0 0.00 0.00 0.00 74 1011.4
20260507085536 47 151 15.0 20.0 0.00 0.00 0.00 75 1011.5
20260507084533 47 158 16.0 22.0 0.00 0.00 0.00 73 1011.5
20260507083530 47 146 18.0 27.0 0.00 0.00 0.00 72 1011.5
20260507082546 47 162 17.0 24.0 0.00 0.00 0.00 73 1011.5
20260507081523 47 150 16.0 22.0 0.00 0.00 0.00 74 1011.4
20260507080540 47 150 14.0 23.0 0.00 0.00 0.00 75 1011.6
20260507075517 47 160 15.0 22.0 0.00 0.00 0.00 74 1011.6
20260507074614 47 141 12.0 16.0 0.00 0.00 0.00 76 1011.5
20260507073611 46 135 15.0 20.0 0.00 0.00 0.00 76 1011.5
20260507072648 46 146 13.0 18.0 0.00 0.00 0.00 77 1011.5
20260507071605 44 150 12.0 16.0 0.00 0.00 0.00 73 1011.6
20260507070601 43 130 9.0 16.0 0.00 0.00 0.00 77 1011.7
20260507065558 44 143 14.0 20.0 0.00 0.00 0.00 74 1011.7
20260507064555 45 159 14.0 27.0 0.00 0.00 0.00 74 1011.6
20260507063552 45 133 10.0 15.0 0.00 0.00 0.00 71 1011.8
20260507062549 44 139 8.0 11.0 0.00 0.00 0.00 71 1012.0
20260507061546 44 161 10.0 15.0 0.00 0.01 0.00 73 1011.8
20260507060542 43 153 9.0 14.0 0.00 0.01 0.00 76 1011.9
20260507055539 43 162 10.0 16.0 0.00 0.01 0.00 78 1012.0
20260507054536 43 116 9.0 13.0 0.00 0.01 0.00 82 1012.0
20260507053533 43 105 11.0 15.0 0.00 0.01 0.00 82 1012.0
20260507052530 43 134 8.0 13.0 0.00 0.02 0.00 80 1012.0
20260507051547 43 131 8.0 11.0 0.00 0.02 0.00 80 1012.0
20260507050523 43 97 10.0 14.0 0.00 0.04 0.00 81 1012.1
20260507045541 43 111 9.0 13.0 0.00 0.04 0.00 81 1012.1
20260507044517 43 105 7.0 11.0 0.00 0.04 0.00 81 1012.2
20260507043634 43 112 8.0 11.0 0.00 0.04 0.00 81 1012.2
20260507042611 42 101 8.0 13.0 0.00 0.05 0.00 82 1012.2
20260507041608 42 116 6.0 9.0 0.00 0.05 0.00 83 1012.3